Theta_e
305 305 305 304 304 303 303 302 302 301 301 300 300 299 299 298 298 298 297 297 297 296 295 295 295 294 294 294 294 293 293 293 292 292 292 292 291 291 291 290 289 289
304 304 303 303 302 302 303 302 301 301 300 300 300 299 298 297 297 297 297 296 296 296 295 295 295 294 294 293 293 293 292 292 291 292 291 291 290 290 290 289 289 288
303 303 302 301 301 301 301 301 301 301 300 299 299 298 297 297 296 297 297 296 296 295 295 295 294 294 293 293 292 292 292 291 291 291 291 290 290 290 289 289 288 288
302 302 302 301 301 300 300 300 300 299 299 297 297 297 296 296 296 296 296 295 295 295 295 294 294 293 293 293 292 291 291 291 291 291 291 290 290 290 289 288 288 288
302 301 301 301 301 300 300 299 298 298 297 297 297 296 296 295 295 295 295 295 295 295 294 294 294 293 293 293 292 291 291 291 291 291 290 290 289 289 289 289 288 287
301 301 301 300 300 299 299 298 298 297 297 296 296 296 296 296 295 294 294 294 294 294 294 294 293 293 293 292 292 292 291 290 290 290 290 289 288 289 289 288 288 287
300 300 299 299 299 299 298 298 297 297 297 296 296 295 295 295 295 294 294 294 293 293 293 293 293 293 293 292 292 291 291 290 290 290 289 289 288 288 289 288 288 287
299 299 299 299 298 298 297 297 297 297 296 296 295 295 295 295 294 294 294 294 293 293 293 293 292 292 292 292 291 290 290 290 289 289 289 288 288 287 288 288 288 287
299 298 298 298 298 297 297 297 296 296 296 295 295 295 295 295 294 294 294 294 293 293 292 292 292 292 291 291 291 290 290 289 289 289 289 288 287 288 287 288 287 287
297 298 298 298 297 297 297 296 296 296 296 296 295 295 294 295 295 294 294 293 293 292 292 292 292 291 291 291 291 290 290 289 289 289 289 288 288 288 288 287 287 287
297 297 297 297 297 297 296 296 296 296 295 295 295 294 294 294 294 294 293 293 292 292 291 291 291 291 290 290 291 291 290 289 289 288 288 288 288 288 288 287 287 287
297 297 297 297 297 296 296 296 296 295 295 295 295 294 294 294 293 293 293 293 292 292 292 291 291 291 290 290 290 290 290 289 289 288 288 288 288 288 288 287 287 287
296 296 297 297 296 296 296 296 296 295 295 295 295 294 294 293 293 293 293 293 293 292 292 292 291 290 290 290 290 290 289 289 288 288 288 287 287 287 287 287 287 287
297 297 297 297 297 296 296 296 295 295 295 295 294 294 294 293 293 293 293 292 292 292 292 292 291 290 290 290 290 289 289 288 288 287 287 287 287 287 287 287 287 286
296 297 297 296 296 296 296 295 295 295 295 294 294 294 294 294 294 293 292 291 291 291 291 291 291 290 290 290 289 289 289 288 288 288 287 286 286 286 287 287 286 286
296 296 296 296 295 295 295 295 295 294 294 294 294 294 293 293 292 292 291 291 291 291 291 291 291 291 289 290 290 289 289 289 289 288 287 287 286 285 285 286 286 286
295 295 295 295 295 295 295 294 294 294 293 293 292 292 292 292 292 291 291 291 291 291 290 290 291 291 289 291 291 291 290 289 288 288 287 287 286 286 285 285 286 286
295 295 295 295 295 294 294 294 293 292 292 292 291 291 291 291 291 290 290 290 290 290 290 290 290 290 291 291 291 291 290 289 289 288 287 287 286 286 286 285 285 285
295 294 294 294 294 294 293 293 292 292 291 291 291 291 290 290 290 290 290 290 290 289 289 290 289 290 291 291 291 292 291 289 289 289 288 287 286 286 285 285 284 284
294 294 293 293 294 293 293 292 292 292 291 292 291 290 290 290 289 289 289 289 290 289 289 289 289 289 291 291 291 291 291 290 289 289 288 287 287 286 286 285 285 285
294 293 293 293 293 293 292 292 292 291 291 291 291 291 290 290 289 289 289 289 289 289 289 289 289 290 291 291 291 291 292 291 289 288 287 287 287 286 286 285 285 285
294 293 293 293 293 292 292 292 291 291 291 291 290 291 291 290 290 290 289 289 289 289 288 288 289 290 291 291 291 292 292 290 288 287 287 286 286 286 286 285 284 283
294 293 293 293 292 292 291 291 291 291 291 291 290 290 290 290 290 290 290 290 289 289 289 289 288 289 290 290 291 292 291 290 288 287 286 286 286 286 286 285 285 284
294 294 293 292 292 292 292 292 292 291 291 290 290 290 289 290 290 289 290 290 289 289 289 289 289 288 289 290 291 291 290 289 288 287 286 285 286 286 285 285 285 285
294 294 293 293 292 292 292 292 291 291 291 290 291 290 290 290 289 289 289 289 289 289 287 289 289 288 289 290 290 291 290 289 288 286 285 285 285 285 285 285 284 285
294 293 293 293 293 293 293 292 292 291 291 290 290 290 289 289 288 289 289 289 289 288 289 289 289 288 288 290 290 290 290 289 288 286 286 285 285 285 284 284 285 285
Wind_Speed
11 12 12 11 11 11 12 12 11 12 11 11 11 11 13 10 11 11 10 12 12 10 9 9 9 9 8 8 8 7 7 8 7 6 7 7 6 7 7 6 6 6
10 10 10 9 8 11 11 11 11 12 12 11 9 9 10 12 11 11 10 12 13 11 10 8 9 9 9 8 8 8 7 7 7 4 7 7 6 6 6 6 5 4
9 9 10 10 10 11 13 11 11 10 10 10 9 9 11 11 12 10 10 11 13 12 11 9 9 9 9 8 8 7 7 7 7 6 6 7 6 6 6 6 5 6
11 10 9 9 9 11 10 11 9 8 8 9 10 9 11 12 11 12 10 9 11 12 11 9 8 8 8 8 8 7 6 6 6 6 6 5 5 6 6 6 5 5
9 9 9 9 9 10 10 11 11 9 9 9 9 9 10 13 12 11 10 9 10 11 11 11 9 8 8 8 8 7 6 6 5 6 7 7 6 6 5 6 6 5
6 8 9 10 10 11 10 11 11 12 11 11 12 10 10 13 13 13 12 12 9 11 11 11 11 9 9 9 8 8 8 7 6 7 6 7 6 4 5 5 6 6
8 8 9 9 10 10 11 10 10 11 12 12 11 10 9 11 13 14 13 12 12 11 11 11 12 11 9 9 9 9 8 8 8 8 8 6 6 6 5 6 6 6
9 8 9 9 10 9 10 10 10 10 10 11 13 11 10 11 13 13 12 12 12 12 11 10 11 11 10 9 10 10 9 6 8 9 8 7 7 7 6 5 6 6
9 8 9 10 10 9 10 10 10 10 10 12 11 10 9 8 11 12 13 12 11 11 11 11 11 11 10 10 10 10 10 8 8 9 9 9 8 8 7 6 6 6
9 9 10 10 10 9 10 10 10 10 10 10 10 9 10 7 8 11 11 11 11 11 11 11 11 11 10 10 11 11 10 10 9 9 8 8 8 8 8 8 8 7
9 9 10 10 10 9 10 10 10 10 9 10 10 10 9 8 8 8 10 11 11 12 12 11 11 11 11 10 9 9 10 9 9 8 8 8 8 8 8 9 8 8
9 9 10 10 10 10 10 10 10 10 10 9 10 11 9 8 9 9 10 11 10 10 10 11 11 10 11 11 10 9 8 8 8 9 8 8 8 7 8 8 8 8
8 9 9 9 9 9 9 9 10 10 10 10 9 10 11 10 9 9 8 9 10 9 10 10 10 10 9 9 9 9 9 9 8 8 8 7 7 8 7 7 7 7
7 8 8 9 8 8 9 9 9 10 9 9 9 10 10 10 10 10 9 8 8 9 8 9 9 9 9 9 9 9 9 9 9 9 8 7 7 7 7 7 7 7
6 6 7 7 8 8 9 9 9 9 9 9 9 10 9 10 9 9 10 9 8 9 9 8 9 9 8 9 9 9 9 9 9 9 8 8 7 7 6 6 6 7
7 6 7 8 8 8 9 8 9 9 9 9 9 8 8 7 8 7 8 10 10 9 8 8 8 7 9 14 11 9 9 8 8 8 8 8 8 7 6 6 7 6
7 7 7 8 8 8 8 8 9 9 9 8 7 7 8 8 8 9 9 9 10 10 10 9 8 8 13 13 14 14 10 9 9 8 8 8 8 9 8 8 7 7
8 8 8 8 8 8 8 8 8 9 9 9 8 8 8 7 9 9 9 8 8 9 9 9 8 10 15 16 16 15 12 9 8 8 8 8 8 8 7 7 7 7
8 9 8 8 8 8 8 8 8 8 9 9 10 8 7 9 9 9 9 8 9 9 9 8 7 11 15 16 16 16 15 11 8 8 9 8 8 8 7 7 7 7
8 9 8 8 8 8 8 8 9 9 8 7 7 8 9 8 8 9 8 9 9 9 9 8 8 12 16 17 17 17 16 13 7 9 8 8 8 8 7 8 8 8
9 9 9 8 9 9 10 10 10 9 9 9 9 10 10 11 10 10 10 9 8 8 8 8 8 13 16 18 17 17 17 13 7 7 7 7 7 7 8 8 8 8
9 9 9 9 9 9 10 10 10 11 11 9 9 8 7 6 6 8 9 10 9 9 8 9 8 14 16 17 18 17 17 10 8 8 8 7 7 7 7 7 6 7
9 9 9 10 9 10 10 9 10 10 9 8 9 9 10 11 11 10 10 10 10 10 11 9 8 13 17 17 17 18 14 9 8 7 7 8 7 7 7 7 7 7
10 10 10 10 10 11 11 9 8 7 8 8 10 10 10 10 9 9 9 10 11 12 11 10 9 12 17 17 17 18 15 10 9 8 8 7 6 6 6 6 8 12
10 9 9 10 10 10 10 10 10 10 8 8 7 7 8 7 8 8 8 8 9 9 10 10 8 10 16 17 18 18 15 9 9 8 8 8 7 6 6 6 6 8
10 11 10 11 11 10 10 10 9 8 9 9 8 7 7 7 7 7 8 7 7 8 9 10 8 8 13 18 18 19 18 11 8 8 9 9 7 7 7 6 7 7
Wind_Direction
191 175 172 172 166 157 157 159 163 162 164 162 169 161 159 149 150 152 155 142 141 141 144 147 145 145 148 151 156 152 163 166 160 159 159 158 161 165 167 164 167 172
164 167 166 159 153 151 157 158 159 165 164 163 166 153 145 145 150 148 153 144 139 141 143 143 143 146 150 154 157 158 157 159 162 162 158 162 159 161 163 162 165 159
150 154 155 147 151 149 151 154 157 160 158 154 145 151 146 146 144 146 150 148 142 142 143 146 146 149 151 150 152 154 157 160 162 165 160 165 157 162 161 159 162 172
149 150 144 135 139 141 140 141 147 146 144 144 152 155 150 146 145 143 143 148 140 140 139 140 146 148 147 147 148 150 155 162 161 159 160 151 167 159 162 163 159 156
142 141 139 135 136 136 138 143 144 145 148 146 140 149 151 146 147 142 143 145 148 145 143 144 146 148 147 148 149 147 154 159 160 167 166 169 169 168 164 158 160 165
110 124 128 131 137 140 144 146 150 150 147 150 157 158 164 154 149 148 149 152 154 149 148 149 151 154 155 152 152 158 161 166 173 173 172 173 165 161 156 163 158 166
124 119 125 130 135 142 141 144 148 152 155 155 149 160 168 162 155 152 153 156 155 156 158 162 162 161 164 161 164 168 174 173 168 172 172 169 159 160 163 163 166 168
125 130 132 134 135 139 140 144 149 151 151 152 160 158 168 169 158 152 153 155 158 161 164 165 165 165 167 167 173 171 170 166 166 170 171 168 167 171 170 169 162 166
131 133 135 137 138 142 145 149 152 152 153 156 157 156 163 176 161 154 153 154 157 160 162 165 167 168 170 172 173 171 169 170 172 172 173 171 174 173 169 160 162 174
139 141 142 144 146 150 152 153 152 151 154 155 154 153 157 170 162 153 149 154 157 161 165 165 167 170 171 175 174 173 173 172 171 176 176 174 173 169 169 170 175 174
139 143 145 148 149 153 154 154 153 150 154 153 150 154 154 158 157 152 152 157 163 167 166 169 169 169 170 174 174 175 175 172 172 172 173 173 176 175 173 174 176 185
144 147 151 153 154 157 157 154 150 151 152 153 157 155 154 163 161 161 163 164 167 170 170 169 168 171 174 174 173 173 173 172 169 171 175 175 177 175 174 177 179 184
153 156 156 155 157 158 155 152 151 152 154 158 161 156 156 160 166 162 167 167 169 169 172 170 169 171 172 172 174 174 174 170 170 174 174 175 178 174 173 177 180 180
159 156 157 156 155 153 157 154 150 151 155 153 155 160 161 166 167 169 167 168 168 169 168 165 166 170 173 175 176 175 174 174 173 173 173 175 173 174 173 176 179 183
150 151 147 145 149 152 153 155 153 150 149 153 160 164 167 169 171 168 163 163 163 167 167 168 171 175 177 178 174 176 177 176 175 175 173 173 174 174 177 176 179 189
146 146 147 147 149 154 159 154 151 149 153 159 166 165 161 161 161 164 167 165 162 166 167 171 178 181 182 179 177 173 176 176 174 177 174 174 172 172 179 185 189 194
147 153 151 156 159 155 155 154 151 151 154 158 157 158 161 160 160 164 170 170 172 172 174 178 182 184 179 180 179 178 175 176 178 178 176 176 177 175 181 185 193 197
153 154 157 160 158 159 158 155 148 149 152 154 155 160 162 161 169 173 173 175 173 175 179 183 186 180 178 182 183 182 180 177 178 178 181 184 181 181 181 182 190 193
154 156 159 162 165 161 156 150 153 153 154 158 165 164 157 170 176 169 177 173 173 177 184 185 187 180 180 183 185 185 182 178 183 183 183 187 185 183 180 181 183 189
158 157 163 167 162 158 158 160 163 169 166 162 154 156 169 170 171 175 171 178 181 182 184 186 189 185 183 185 187 187 184 183 187 186 189 189 186 184 182 185 189 192
164 163 163 168 167 165 167 172 174 166 166 169 172 175 177 180 177 176 179 177 180 181 185 191 194 186 187 187 188 187 185 184 185 186 188 189 188 186 189 193 198 201
168 167 164 166 168 168 172 174 175 175 175 171 170 174 177 171 175 177 177 181 181 182 185 196 195 190 189 189 188 186 183 185 186 189 189 189 190 191 195 198 195 197
172 170 167 166 166 169 175 176 175 176 175 169 175 179 180 183 184 185 181 178 181 186 189 194 192 192 191 189 187 184 181 188 187 189 192 191 196 195 197 194 195 197
178 176 173 171 170 176 177 178 176 173 178 173 181 180 186 187 181 180 183 186 185 190 191 188 193 191 190 188 186 186 184 185 188 187 192 193 196 197 194 200 206 202
179 178 179 177 178 181 175 173 177 177 172 171 182 182 184 175 179 183 186 190 193 190 185 189 191 189 189 188 188 187 185 187 184 186 188 196 190 197 197 204 211 212
177 179 183 183 184 180 179 180 174 169 173 177 181 180 177 176 179 185 187 191 185 188 191 195 190 187 190 190 189 189 188 184 183 183 195 191 190 190 195 212 213 216